Hollywood, FL

11:57 AM EDT on March 27, 2017 (GMT -0400)
North Perry

Weather History for KHWO - December, 2013

Change the Weather History Date:

Saturday, December 7, 2013

  Actual Average (KFLL) Record (KFLL)
Temperature  
Mean Temperature 74 °F -  
Max Temperature 82 °F 78 °F 86 °F (1922)
Min Temperature 66 °F 61 °F 40 °F (2010)
Cooling Degree Days 9    
Growing Degree Days 24 (Base 50)    
Moisture  
Dew Point 67 °F    
Average Humidity 76    
Maximum Humidity 96    
Minimum Humidity 58    
Precipitation  
Precipitation 0.03 in - - ()
Sea Level Pressure  
Sea Level Pressure 30.19 in    
Wind  
Wind Speed 5 mph (East)    
Max Wind Speed 12 mph    
Max Gust Speed -    
Visibility 10 miles    
Events      
Averages and records for this station are not official NWS values.
T = Trace of Precipitation, MM = Missing Value Source: NWS Daily Summary

Daily Weather History Graph

Daily Weather History Graph

Search for Another Location

Airport or City:

Trip Planner

Search our weather history database for the weather conditions in past years. The results will help you decide how hot, cold, wet, or windy it might be!

Date:

Astronomy

Dec. 07, 2013 Rise Set
Actual Time 6:55 AM EST 5:29 PM EST
Civil Twilight 6:30 AM EST 5:54 PM EST
Nautical Twilight 6:01 AM EST 6:23 PM EST
Astronomical Twilight 5:33 AM EST 6:51 PM EST
Moon 10:58 AM EST (12/7) 10:47 PM EST (12/7)
Length of Visible Light 11h 24m
Length of Day
10h 34m
Waxing Crescent, 29% of the Moon is Illuminated
Dec 7
Waxing Crescent
Dec 9
First Quarter
Dec 17
Full
Dec 25
Last Quarter
Jan 1
New

Hourly Weather History & Observations

Time (EST) Temp. Heat Index Dew Point Humidity Pressure Visibility Wind Dir Wind Speed Gust Speed Precip Events Conditions
12:53 AM 72.0 °F - 66.0 °F 81% 30.19 in 10.0 mi East 4.6 mph - N/A   Partly Cloudy
1:53 AM 71.1 °F - 64.9 °F 81% 30.18 in 10.0 mi East 3.5 mph - N/A   Clear
2:53 AM 68.0 °F - 64.9 °F 90% 30.17 in 10.0 mi Calm Calm - N/A   Clear
3:53 AM 68.0 °F - 64.9 °F 90% 30.18 in 10.0 mi Calm Calm - N/A   Clear
4:53 AM 66.9 °F - 64.9 °F 93% 30.17 in 10.0 mi Calm Calm - N/A   Partly Cloudy
5:53 AM 66.9 °F - 64.9 °F 93% 30.18 in 10.0 mi Calm Calm - N/A   Scattered Clouds
6:53 AM 66.0 °F - 64.9 °F 96% 30.20 in 10.0 mi Calm Calm - N/A   Partly Cloudy
7:53 AM 71.1 °F - 69.1 °F 93% 30.22 in 10.0 mi Calm Calm - N/A   Clear
8:53 AM 78.1 °F - 69.1 °F 74% 30.23 in 10.0 mi ESE 6.9 mph - N/A   Clear
9:53 AM 79.0 °F - 68.0 °F 69% 30.24 in 10.0 mi East 11.5 mph - N/A   Scattered Clouds
10:12 AM 80.6 °F 83.9 °F 69.8 °F 70% 30.23 in 10.0 mi East 11.5 mph - N/A   Mostly Cloudy
10:31 AM 80.6 °F 83.2 °F 68.0 °F 65% 30.23 in 10.0 mi ESE 10.4 mph - N/A   Scattered Clouds
10:53 AM 81.0 °F 83.3 °F 66.9 °F 62% 30.23 in 10.0 mi SE 11.5 mph - N/A   Scattered Clouds
11:53 AM 82.0 °F 84.5 °F 66.9 °F 60% 30.22 in 10.0 mi East 10.4 mph - N/A   Scattered Clouds
12:53 PM 82.9 °F 85.4 °F 66.9 °F 58% 30.19 in 10.0 mi East 10.4 mph - N/A   Partly Cloudy
1:53 PM 82.9 °F 85.8 °F 68.0 °F 60% 30.17 in 10.0 mi ESE 10.4 mph - N/A   Partly Cloudy
2:53 PM 82.0 °F 84.9 °F 68.0 °F 62% 30.16 in 10.0 mi East 8.1 mph - N/A   Partly Cloudy
3:53 PM 80.1 °F 82.3 °F 66.9 °F 64% 30.16 in 10.0 mi East 10.4 mph - N/A   Partly Cloudy
4:53 PM 78.1 °F - 66.9 °F 68% 30.17 in 10.0 mi East 9.2 mph - N/A   Partly Cloudy
5:53 PM 75.9 °F - 66.0 °F 71% 30.17 in 10.0 mi East 3.5 mph - N/A   Clear
6:53 PM 75.0 °F - 66.9 °F 76% 30.18 in 10.0 mi East 3.5 mph - N/A   Scattered Clouds
7:53 PM 75.0 °F - 66.9 °F 76% 30.19 in 10.0 mi ENE 4.6 mph - N/A   Clear
8:53 PM 75.0 °F - 68.0 °F 79% 30.19 in 10.0 mi ENE 6.9 mph - N/A   Clear
9:53 PM 75.9 °F - 69.1 °F 79% 30.19 in 10.0 mi East 5.8 mph - N/A   Mostly Cloudy
10:53 PM 75.0 °F - 68.0 °F 79% 30.20 in 10.0 mi East 10.4 mph - N/A   Mostly Cloudy
11:53 PM 73.0 °F - 71.1 °F 93% 30.20 in 10.0 mi East 8.1 mph - 0.03 in   Overcast